Weather History for Joplin, MO

Change the Weather History Date:

Friday, July 26, 2013

  Actual Average Record
Temperature  
Mean Temperature 71 °F 81 °F  
Max Temperature 77 °F 91 °F 104 °F (1952)
Min Temperature 64 °F 70 °F 56 °F (2004)
Degree Days  
Heating Degree Days 0 0  
Month to date heating degree days 0 0  
Since 1 June heating degree days 12 5  
Since 1 July heating degree days 0 0  
Cooling Degree Days 6 16  
Month to date cooling degree days 364 395  
Year to date cooling degree days 831 893  
Since 1 June cooling degree days 687 713  
Growing Degree Days 20 (Base 50)    
Moisture  
Dew Point 68 °F    
Average Humidity 87    
Maximum Humidity 100    
Minimum Humidity 74    
Precipitation  
Precipitation 0.37 in 0.11 in 2.90 in (1948)
Month to date precipitation 0.59 3.30  
Year to date precipitation 28.37 27.11  
Snow  
Snow 0.00 in - - ()
Month to date snowfall 0.0  
Since 1 June snowfall 0.0  
Snow Depth 0.00 in    
Sea Level Pressure  
Sea Level Pressure 30.03 in    
Wind  
Wind Speed 4 mph (SSE)    
Max Wind Speed 12 mph    
Max Gust Speed -    
Visibility 6 miles    
Events Rain , Thunderstorm    
T = Trace of Precipitation, MM = Missing Value Source: NWS Daily Summary

Daily Weather History Graph

Daily Weather History Graph

Search for Another Location

Airport:

Trip Planner

Search our weather history database for the weather conditions in past years. The results will help you decide how hot, cold, wet, or windy it might be!

Date:

Astronomy

Jul. 26, 2013 Rise Set
Actual Time 6:18 AM CDT 8:30 PM CDT
Civil Twilight 5:48 AM CDT 8:59 PM CDT
Nautical Twilight 5:13 AM CDT 9:35 PM CDT
Astronomical Twilight 4:34 AM CDT 10:14 PM CDT
Moon 10:53 PM CDT (7/26) 10:47 AM CDT (7/26)
Length of Visible Light 15h 10m
Length of Day
14h 12m
Waning Gibbous, 80% of the Moon is Illuminated
Jul 26
Waning Gibbous
Jul 29
Last Quarter
Aug 6
New
Aug 14
First Quarter
Aug 20
Full

Hourly Weather History & Observations

Time (CDT) Temp. Dew Point Humidity Pressure Visibility Wind Dir Wind Speed Gust Speed Precip Events Conditions
12:53 AM 75.0 °F 66.0 °F 73% 30.00 in 10.0 mi SSE 5.8 mph - N/A   Scattered Clouds
1:53 AM 75.0 °F 66.9 °F 76% 29.99 in 10.0 mi South 6.9 mph - N/A   Overcast
2:53 AM 75.0 °F 68.0 °F 79% 29.98 in 10.0 mi South 6.9 mph - N/A   Overcast
3:53 AM 73.9 °F 69.1 °F 85% 29.98 in 10.0 mi SSE 8.1 mph - 0.00 in Rain Light Rain
4:53 AM 73.9 °F 69.1 °F 85% 29.99 in 10.0 mi WSW 11.5 mph - 0.00 in Rain Light Rain
4:58 AM 73.4 °F 69.8 °F 88% 30.02 in 2.5 mi Calm Calm - 0.07 in Rain , Thunderstorm Heavy Thunderstorms and Rain
5:11 AM 73.4 °F 69.8 °F 88% 30.02 in 10.0 mi East 5.8 mph - 0.08 in Thunderstorm Thunderstorm
5:39 AM 71.6 °F 69.8 °F 94% 30.01 in 10.0 mi ESE 5.8 mph - 0.08 in   Overcast
5:53 AM 72.0 °F 69.1 °F 91% 29.98 in 10.0 mi SSE 6.9 mph - 0.08 in   Mostly Cloudy
6:53 AM 72.0 °F 69.1 °F 91% 29.98 in 10.0 mi South 5.8 mph - 0.00 in   Mostly Cloudy
7:53 AM 73.0 °F 70.0 °F 90% 30.01 in 10.0 mi SW 5.8 mph - 0.00 in   Overcast
8:12 AM 73.4 °F 69.8 °F 88% 30.05 in 10.0 mi SW 6.9 mph - N/A   Overcast
8:42 AM 73.4 °F 69.8 °F 88% 30.06 in 8.0 mi SW 8.1 mph - 0.00 in Rain Light Rain
8:53 AM 73.0 °F 71.1 °F 93% 30.03 in 9.0 mi SW 5.8 mph - 0.00 in Rain Light Rain
9:39 AM 73.4 °F 71.6 °F 94% 30.05 in 9.0 mi Calm Calm - 0.00 in Rain Light Rain
9:50 AM 73.4 °F 69.8 °F 88% 30.06 in 10.0 mi WSW 4.6 mph - 0.00 in   Overcast
9:53 AM 73.0 °F 70.0 °F 90% 30.03 in 10.0 mi WSW 3.5 mph - 0.00 in Rain Light Rain
10:00 AM 73.4 °F 69.8 °F 88% 30.06 in 8.0 mi West 5.8 mph - 0.00 in Rain Light Rain
10:15 AM 71.6 °F 69.8 °F 94% 30.07 in 5.0 mi SW 6.9 mph - 0.01 in Rain Light Rain
10:25 AM 71.6 °F 69.8 °F 94% 30.07 in 2.5 mi SW 6.9 mph - 0.04 in Rain Rain
10:34 AM 69.8 °F 69.8 °F 100% 30.07 in 2.5 mi SSW 6.9 mph - 0.06 in Rain Rain
10:46 AM 69.8 °F 68.0 °F 94% 30.07 in 5.0 mi South 3.5 mph - 0.07 in Rain Light Rain
10:53 AM 71.1 °F 69.1 °F 93% 30.04 in 6.0 mi Calm Calm - 0.07 in Rain Light Rain
11:53 AM 71.1 °F 68.0 °F 90% 30.04 in 6.0 mi SSW 3.5 mph - 0.02 in Rain Light Rain
12:01 PM 69.8 °F 68.0 °F 94% 30.07 in 2.5 mi Calm Calm - 0.02 in Rain Rain
12:07 PM 69.8 °F 68.0 °F 94% 30.07 in 3.0 mi Calm Calm - 0.03 in Rain Rain
12:53 PM 70.0 °F 68.0 °F 93% 30.04 in 2.5 mi Calm Calm - 0.14 in Rain Heavy Rain
1:07 PM 69.8 °F 68.0 °F 94% 30.06 in 4.0 mi Calm Calm - 0.03 in Rain Light Rain
1:17 PM 69.8 °F 69.8 °F 100% 30.05 in 5.0 mi Calm Calm - 0.03 in Rain Light Rain
1:53 PM 70.0 °F 69.1 °F 97% 30.02 in 4.0 mi ENE 4.6 mph - 0.04 in Rain Light Rain
2:28 PM 69.8 °F 68.0 °F 94% 30.05 in 2.0 mi East 4.6 mph - 0.01 in Rain Light Rain
2:36 PM 69.8 °F 68.0 °F 94% 30.05 in 2.0 mi East 4.6 mph - 0.01 in Rain Light Rain
2:40 PM 69.8 °F 68.0 °F 94% 30.05 in 3.0 mi East 4.6 mph - 0.01 in Rain Light Rain
2:53 PM 70.0 °F 69.1 °F 97% 30.02 in 3.0 mi East 4.6 mph - 0.01 in Rain Light Rain
3:53 PM 72.0 °F 69.1 °F 91% 30.02 in 10.0 mi East 3.5 mph - 0.01 in   Overcast
4:18 PM 73.4 °F 69.8 °F 88% 30.04 in 10.0 mi East 3.5 mph - N/A   Overcast
4:53 PM 73.9 °F 69.1 °F 85% 30.01 in 10.0 mi East 3.5 mph - N/A   Mostly Cloudy
5:53 PM 75.0 °F 68.0 °F 79% 30.00 in 10.0 mi East 5.8 mph - N/A   Mostly Cloudy
6:53 PM 73.9 °F 66.9 °F 79% 30.00 in 10.0 mi East 5.8 mph - N/A   Scattered Clouds
7:53 PM 73.9 °F 68.0 °F 82% 29.99 in 10.0 mi East 3.5 mph - N/A   Clear
8:53 PM 70.0 °F 66.9 °F 90% 29.99 in 10.0 mi Calm Calm - N/A   Clear
9:53 PM 66.9 °F 66.0 °F 97% 30.00 in 10.0 mi Calm Calm - N/A   Clear
10:29 PM 66.2 °F 66.2 °F 100% 30.03 in 1.8 mi Calm Calm - N/A   Clear
10:42 PM 66.2 °F 64.4 °F 94% 30.03 in 3.0 mi Calm Calm - N/A   Clear
10:46 PM 64.4 °F 64.4 °F 100% 30.03 in 1.5 mi Calm Calm - N/A   Clear
10:53 PM 66.0 °F 64.9 °F 96% 30.01 in 0.8 mi Calm Calm - N/A   Clear
10:59 PM 64.4 °F 64.4 °F 100% 30.04 in 2.0 mi Calm Calm - N/A   Clear
11:16 PM 66.2 °F 64.4 °F 94% 30.04 in 3.0 mi Calm Calm - N/A   Clear
11:29 PM 66.2 °F 64.4 °F 94% 30.04 in 1.8 mi Calm Calm - N/A   Clear
11:50 PM 64.4 °F 64.4 °F 100% 30.05 in 3.0 mi Calm Calm - N/A   Clear
11:53 PM 66.0 °F 64.9 °F 96% 30.03 in 8.0 mi Calm Calm - N/A   Clear